Weather History for KBBW - January, 2012

Change the Weather History Date:

Monday, January 9, 2012

  Actual Average Record
Temperature  
Mean Temperature 36 °F 26 °F  
Max Temperature 55 °F 38 °F 71 °F (2002)
Min Temperature 17 °F 14 °F -33 °F (1988)
Degree Days  
Heating Degree Days 29 39  
Month to date heating degree days 274 358  
Cooling Degree Days 0 0  
Month to date cooling degree days 0 0  
Year to date cooling degree days 0 0  
Moisture  
Dew Point 22 °F    
Average Humidity 62    
Maximum Humidity 91    
Minimum Humidity 32    
Precipitation  
Precipitation 0.00 in 0.01 in 0.30 in (1985)
Sea Level Pressure  
Sea Level Pressure 30.16 in    
Wind  
Wind Speed 6 mph (WNW)    
Max Wind Speed 18 mph    
Max Gust Speed 22 mph    
Visibility 10 miles    
Events      
T = Trace of Precipitation, MM = Missing Value Source: NWS Daily Summary

Daily Weather History Graph

Daily Weather History Graph

Search for Another Location

Airport or City:

Trip Planner

Search our weather history database for the weather conditions in past years. The results will help you decide how hot, cold, wet, or windy it might be!

Date:

Astronomy

Jan. 09, 2012 Rise Set
Actual Time 8:04 AM CST 5:26 PM CST
Civil Twilight 7:33 AM CST 5:57 PM CST
Nautical Twilight 6:59 AM CST 6:32 PM CST
Astronomical Twilight 6:25 AM CST 7:05 PM CST
Moon 6:15 PM CST (1/9) 8:05 AM CST (1/9)
Length of Visible Light 10h 24m
Length of Day
9h 22m
Full, 100% of the Moon is Illuminated
Jan 9
Full
Jan 16
Last Quarter
Jan 23
New
Jan 30
First Quarter
Feb 7
Full

Hourly Weather History & Observations

Time (CST) Temp. Windchill Dew Point Humidity Pressure Visibility Wind Dir Wind Speed Gust Speed Precip Events Conditions
12:53 AM 21.0 °F - 18.0 °F 88% 30.25 in 10.0 mi Calm Calm - N/A   Clear
1:53 AM 19.0 °F 13.9 °F 17.1 °F 92% 30.24 in 10.0 mi WSW 3.5 mph - N/A   Clear
2:53 AM 21.0 °F - 18.0 °F 88% 30.22 in 10.0 mi Calm Calm - N/A   Clear
3:53 AM 26.1 °F 18.4 °F 19.0 °F 75% 30.20 in 10.0 mi West 6.9 mph - N/A   Clear
4:53 AM 28.9 °F 20.4 °F 19.0 °F 67% 30.18 in 10.0 mi West 9.2 mph - N/A   Clear
5:53 AM 28.4 °F 19.1 °F 19.4 °F 69% 30.12 in 10.0 mi West 10.4 mph - N/A   Clear
6:53 AM 30.9 °F 22.2 °F 19.0 °F 61% 30.19 in 10.0 mi WNW 10.4 mph - N/A   Clear
7:53 AM 28.0 °F 19.3 °F 18.0 °F 66% 30.21 in 10.0 mi NW 9.2 mph - N/A   Clear
8:53 AM 30.9 °F 22.8 °F 19.9 °F 64% 30.21 in 10.0 mi WNW 9.2 mph - N/A   Clear
9:53 AM 37.4 °F 30.3 °F 21.2 °F 52% 30.14 in 10.0 mi NW 10.4 mph - N/A   Clear
10:53 AM 41.0 °F 34.7 °F 25.0 °F 53% 30.20 in 10.0 mi WNW 10.4 mph - N/A   Clear
11:53 AM 46.0 °F 40.2 °F 27.0 °F 47% 30.19 in 10.0 mi NW 12.7 mph - N/A   Clear
12:53 PM 50.0 °F - 26.1 °F 39% 30.14 in 10.0 mi NW 11.5 mph - N/A   Clear
1:53 PM 53.1 °F - 26.1 °F 35% 30.12 in 10.0 mi WNW 11.5 mph - N/A   Clear
2:53 PM 55.0 °F - 27.0 °F 34% 30.11 in 10.0 mi NW 13.8 mph - N/A   Clear
3:53 PM 55.0 °F - 28.0 °F 35% 30.10 in 10.0 mi NW 12.7 mph - N/A   Clear
4:53 PM 52.0 °F - 27.0 °F 38% 30.10 in 10.0 mi NNW 3.5 mph - N/A   Clear
5:53 PM 39.0 °F 35.7 °F 24.1 °F 55% 30.13 in 10.0 mi NNW 4.6 mph - N/A   Clear
6:53 PM 32.0 °F - 21.9 °F 66% 30.15 in 10.0 mi Calm Calm - N/A   Clear
7:53 PM 27.0 °F - 19.0 °F 72% 30.17 in 10.0 mi Calm Calm - N/A   Clear
8:53 PM 27.0 °F - 21.0 °F 78% 30.16 in 10.0 mi Calm Calm - N/A   Clear
9:53 PM 27.0 °F - 21.9 °F 81% 30.13 in 10.0 mi Calm Calm - N/A   Clear
10:53 PM 30.0 °F - 24.1 °F 79% 30.10 in 10.0 mi Calm Calm - N/A   Clear
11:53 PM 36.0 °F - 26.1 °F 67% 30.08 in 10.0 mi Calm Calm - N/A   Clear